Simultaneous Nadir Overpasses (SNOs) Predictions

Prediction of SNOs between METOP-C and LANDSAT-8 Satellite Orbit:

Table of predicted SNOs for the next 14.0 days since TLE Epoch: 10/5/2024
Index Date (METOP-C) Time (METOP-C) Lat,Lon (METOP-C) SZA (METOP-C ) Date (LANDSAT-8) Time (LANDSAT-8) Lat,Lon (LANDSAT-8) SZA (LANDSAT-8 ) Distance(km) Time Diff (sec)
1 10/07/2024 09:27:42 -81.07,-103.14 90.95 10/07/2024 09:28:44 -81.07,-102.97 90.91 2.91 62
2 10/07/2024 10:18:19 81.13, 65.67 89.26 10/07/2024 10:18:08 81.13, 65.48 89.24 3.29 11
3 10/10/2024 05:02:00 -81.10, -35.99 89.77 10/10/2024 05:02:55 -81.10, -36.17 89.77 3.24 55
4 10/10/2024 05:52:39 81.12, 132.02 90.34 10/10/2024 05:52:20 81.12, 131.88 90.31 2.48 19
5 10/13/2024 00:36:19 -81.10, 30.43 88.70 10/13/2024 00:37:04 -81.10, 30.36 88.69 1.14 45
6 10/13/2024 01:26:58 81.12,-161.62 91.40 10/13/2024 01:26:29 81.12,-161.63 91.39 0.37 29
7 10/15/2024 20:10:37 -81.09, 96.48 87.70 10/15/2024 20:11:10 -81.09, 96.64 87.67 2.69 33
8 10/15/2024 21:01:14 81.13, -94.88 92.49 10/15/2024 21:00:34 81.13, -95.02 92.46 2.53 40
9 10/18/2024 15:44:53 -81.10, 163.29 86.61 10/18/2024 15:45:13 -81.10, 163.38 86.59 1.50 20



Historial Predications of SNOs between METOP-C and LANDSAT-8
